Wind_Speed
26 29 27 25 24 18 21 30 26 16 16 15 19 20 16 18 21 20 19 18 13 13 11 9 8 6 5 5 5 6 6 9 9 15 14 16 16 12 12 8 11 10 12
20 24 20 21 22 25 25 29 26 26 25 31 26 29 29 26 24 20 17 16 14 12 10 7 5 5 5 6 3 5 6 6 8 11 14 15 14 13 11 10 10 11 12
19 18 20 22 20 19 22 25 27 25 25 28 30 30 26 25 22 18 17 16 13 10 9 8 7 8 7 7 5 5 5 6 8 10 10 15 14 13 11 11 11 11 12
18 21 18 21 23 23 21 22 23 27 28 28 27 26 24 23 22 20 16 13 12 11 11 10 9 7 7 6 7 6 5 5 8 10 12 13 14 14 13 13 12 12 12
12 15 16 17 19 22 25 26 25 23 23 25 26 23 21 20 18 17 14 13 11 10 9 8 8 9 9 8 5 4 5 5 7 10 11 10 12 12 13 11 10 12 11
11 12 16 16 17 19 22 22 21 22 22 22 21 20 19 18 18 18 17 15 13 11 9 8 7 6 6 5 6 6 5 4 7 10 10 10 13 14 12 13 9 7 3
11 11 11 12 16 18 18 19 18 19 20 20 19 19 17 16 17 17 15 14 13 10 8 7 6 6 5 5 6 6 6 6 8 8 8 9 10 8 11 13 11 10 7
9 10 10 11 11 13 16 16 18 18 17 18 19 18 17 16 18 16 15 11 9 7 5 5 5 5 6 7 6 7 6 6 8 7 10 13 14 17 16 15 12 12 11
8 8 8 9 12 11 13 14 14 16 17 17 18 18 17 17 18 17 14 10 7 4 3 4 4 4 8 6 6 7 4 5 8 8 8 10 12 12 11 12 11 10 7
5 7 8 9 9 10 12 12 13 14 15 15 15 14 13 14 16 16 14 8 6 6 6 6 5 5 7 7 6 5 5 4 7 7 9 7 8 7 7 8 9 13 5
4 3 5 7 8 10 12 11 13 12 13 13 13 12 13 12 14 15 14 9 7 10 8 7 7 8 8 5 7 6 8 8 8 8 8 7 6 7 7 5 7 11 13
5 5 4 4 5 6 8 9 11 11 12 11 10 9 11 12 13 14 14 15 10 9 9 8 9 9 8 6 5 4 7 8 10 9 9 8 8 8 8 6 6 8 11
6 6 3 2 2 3 5 6 7 9 10 11 13 12 12 14 14 16 18 18 18 16 13 10 9 8 8 8 7 8 7 9 9 12 11 10 10 9 7 6 6 6 8
8 8 5 2 1 2 4 6 9 11 12 13 13 14 14 16 17 16 20 18 16 14 12 12 10 10 11 9 9 11 12 8 12 15 12 10 10 8 6 7 6 6 5
7 5 5 7 5 3 5 7 7 7 9 9 11 12 12 14 16 14 14 15 14 12 12 11 11 13 15 13 12 11 11 12 15 16 14 12 9 7 6 8 8 7 7
4 4 3 1 5 5 7 10 10 13 14 15 14 12 13 13 11 13 16 16 14 14 15 15 13 14 15 14 11 12 13 14 16 16 14 12 10 9 8 9 9 9 9
5 5 4 1 1 2 3 6 10 10 12 15 15 16 17 15 13 13 15 16 16 15 17 20 15 14 15 14 14 15 16 16 17 17 15 14 12 10 10 12 11 11 11
2 2 2 4 4 3 4 6 7 7 7 7 10 15 17 17 17 17 17 15 18 21 24 20 19 18 17 16 16 17 17 16 17 17 16 15 14 14 12 12 13 14 13
3 3 4 5 7 6 6 7 8 10 11 11 10 10 11 13 14 15 17 21 23 21 23 24 23 20 19 17 16 16 15 16 17 17 16 15 15 16 17 17 15 13 13
4 6 5 6 6 7 7 6 7 8 10 11 12 13 13 12 13 16 18 20 22 22 20 19 21 20 19 18 17 17 18 16 16 17 18 16 16 16 17 17 17 16 17
5 5 5 5 4 5 5 6 7 8 8 8 10 10 9 10 12 13 13 15 17 17 16 15 14 14 14 15 15 15 16 16 16 17 18 18 16 15 15 17 17 18 17
5 6 6 6 6 5 4 6 7 7 8 7 7 6 5 5 6 7 6 7 7 7 8 9 9 10 10 10 10 11 13 14 14 15 16 18 20 19 18 18 18 18 18
7 7 7 7 7 7 6 6 6 6 6 7 6 7 7 5 4 3 3 2 5 6 6 7 8 8 8 9 10 10 10 12 12 12 12 13 15 17 19 20 21 20 19
8 8 8 8 7 7 7 7 7 8 8 7 7 6 6 6 6 6 7 7 8 8 8 7 8 7 8 7 7 8 7 8 8 10 10 12 13 15 16 17 18 20 20
9 8 8 8 8 8 9 9 9 8 8 9 8 8 8 7 8 8 8 8 8 8 7 9 10 10 11 13 12 11 11 10 8 8 9 11 12 13 15 17 17 18 18
10 9 9 8 9 9 9 9 10 10 9 8 9 10 10 10 10 11 11 9 7 6 9 10 10 11 12 12 13 14 15 16 16 16 16 14 12 14 16 17 18 19 19
Wind_Direction
173 176 188 201 211 209 199 206 206 208 197 217 219 219 218 214 198 191 194 193 190 204 206 202 212 218 234 248 233 247 251 251 265 274 281 288 291 283 283 271 253 245 244
188 180 180 192 198 191 193 199 205 219 217 227 219 203 195 187 194 195 195 194 193 192 194 192 210 228 232 240 242 245 255 261 274 278 287 293 296 287 280 271 257 242 240
178 169 176 180 171 173 178 187 198 191 200 197 190 183 178 181 184 188 191 185 186 188 194 191 201 213 216 226 245 254 251 268 274 276 288 293 291 288 277 265 250 240 234
163 175 165 175 183 186 184 187 190 180 168 167 169 173 177 178 182 184 180 180 182 184 191 190 207 214 218 227 234 238 251 280 290 289 290 291 291 286 275 261 241 231 231
148 152 151 162 164 171 167 161 159 158 161 162 164 169 171 175 178 175 176 175 180 185 192 201 213 227 238 241 255 279 303 302 296 295 297 294 285 281 271 269 248 237 231
123 128 149 154 153 157 160 159 160 161 161 165 165 166 170 175 176 174 177 178 180 187 192 209 231 238 256 258 261 264 268 275 307 305 299 293 296 294 285 269 252 205 226
127 131 139 143 149 155 156 159 159 165 166 166 165 170 170 174 175 177 175 181 183 189 201 216 238 256 251 253 268 267 269 268 262 267 277 281 300 298 289 275 254 236 221
121 131 141 144 142 146 149 155 159 162 162 164 163 167 167 170 175 180 181 177 183 193 210 225 223 232 246 246 251 245 282 285 278 279 284 287 280 275 275 274 278 257 244
119 121 128 140 140 141 155 161 161 167 165 172 174 172 172 174 177 182 174 171 179 188 206 218 226 238 251 261 253 263 272 265 281 284 281 295 293 288 274 272 257 214 224
101 128 139 148 152 157 166 163 166 174 171 173 175 178 180 184 186 179 174 174 177 194 205 214 212 209 260 266 254 260 278 302 277 295 293 288 287 287 276 258 248 230 214
65 99 131 146 155 170 176 182 176 179 174 179 182 187 196 188 200 196 188 177 196 211 216 212 231 237 233 237 241 256 271 280 297 288 277 279 279 288 284 279 253 236 234
63 81 96 112 149 167 174 174 177 178 181 181 182 194 205 208 198 213 210 205 212 204 216 229 236 256 273 263 252 245 261 275 278 276 274 270 271 271 274 274 260 248 241
52 70 79 89 112 147 167 183 189 193 197 193 194 198 204 207 215 218 217 221 220 225 227 238 254 267 272 278 275 246 243 236 259 263 266 262 264 264 268 270 268 254 242
30 30 26 40 189 202 210 205 207 209 217 209 202 210 207 201 202 210 215 217 222 227 235 248 258 261 258 259 249 263 244 228 237 252 261 258 262 259 259 257 249 245 238
57 44 356 332 295 266 255 251 253 252 245 243 236 230 218 213 217 218 218 213 215 223 218 229 228 236 244 246 248 249 244 239 242 250 247 247 255 257 251 253 241 230 222
49 51 40 339 296 286 274 280 266 267 264 258 247 250 252 242 241 230 223 219 212 208 206 216 225 228 237 243 240 246 246 240 241 243 242 242 240 245 247 243 237 235 235
15 356 336 342 356 342 307 291 281 272 261 257 255 251 247 251 244 236 224 217 214 209 215 218 217 231 245 245 243 238 239 243 248 245 248 246 247 238 234 238 233 239 240
331 301 307 305 291 272 276 284 281 279 280 273 260 250 249 245 240 233 229 222 221 221 227 227 230 235 244 246 246 246 248 249 250 253 252 253 248 241 231 234 233 233 236
314 312 316 303 302 302 292 290 292 292 287 282 283 275 265 252 246 242 237 229 230 229 229 232 241 243 242 246 249 252 252 253 248 252 253 251 250 243 241 239 236 236 237
320 314 313 301 306 308 308 305 300 293 289 287 285 285 283 270 255 245 240 239 242 245 247 247 249 252 253 253 253 251 251 248 246 250 254 248 247 243 244 244 240 233 234
311 314 316 314 312 309 307 305 307 305 305 303 299 297 283 270 268 265 264 254 250 249 250 254 258 260 261 259 255 255 255 255 255 256 255 252 241 231 237 245 248 244 239
298 303 304 302 302 304 304 298 299 297 298 308 315 320 317 288 275 270 265 261 258 255 255 256 256 255 258 261 262 264 263 263 263 260 261 259 254 252 250 249 247 243 237
288 295 298 297 297 302 303 298 300 300 302 304 302 305 307 302 287 272 265 251 265 269 265 261 261 261 261 261 262 263 268 268 268 268 266 263 260 257 254 247 242 238 235
273 278 284 288 290 293 292 295 299 300 299 300 301 301 293 286 282 279 275 266 269 270 271 274 263 265 265 261 260 262 264 273 266 263 263 260 260 261 261 259 253 248 244
261 269 279 287 292 294 296 297 297 293 291 295 296 294 295 288 284 283 282 284 281 278 274 258 267 269 262 261 260 259 260 263 272 274 271 272 270 266 263 263 263 261 257
254 257 265 271 277 282 285 286 286 286 284 286 287 285 284 282 278 282 287 288 288 280 262 277 281 280 278 274 272 271 270 269 268 265 264 265 264 265 264 268 269 265 261
Height
740 746 752 754 758 757 763 770 777 781 786 793 801 803 807 811 820 821 823 826 828 828 833 833 836 837 839 841 841 843 843 844 843 841 839 839 837 837 835 834 835 837 837
738 743 750 755 759 760 763 772 774 778 782 786 796 801 807 810 817 820 823 825 826 830 830 831 834 835 839 841 841 841 841 841 842 842 840 838 838 838 836 833 834 835 835
743 748 752 756 758 762 766 769 776 776 785 790 794 798 804 809 814 819 821 823 825 825 827 829 832 835 837 835 837 838 837 837 838 839 837 837 834 833 833 831 831 832 834
746 752 755 758 760 763 768 772 775 778 783 787 791 798 803 807 813 816 817 820 821 823 826 828 831 834 836 836 836 835 833 832 835 836 835 835 836 836 834 829 828 828 831
752 755 756 762 763 765 769 772 775 779 784 785 789 796 800 805 808 812 817 820 822 823 826 828 830 831 834 833 834 834 833 832 832 832 833 831 833 834 834 832 825 826 827
757 758 759 764 766 769 769 773 776 779 781 786 790 793 798 803 807 810 814 817 819 823 823 826 828 828 828 828 830 830 829 830 833 836 832 834 833 834 833 830 827 823 825
762 763 765 768 768 770 772 775 778 781 783 786 789 794 798 802 807 810 814 817 819 820 822 824 824 825 826 828 828 827 825 824 826 825 828 829 829 831 833 831 824 822 821
768 767 768 770 771 772 775 777 778 782 785 789 791 794 797 802 807 812 815 816 819 820 821 822 823 824 824 827 828 826 825 824 827 825 826 825 825 828 828 826 822 822 821
771 769 771 772 772 774 777 778 778 783 785 791 794 796 798 801 805 810 813 814 817 817 818 820 822 824 826 823 824 824 823 822 820 822 821 822 825 826 823 821 821 820 820
775 774 773 774 774 775 780 781 783 785 785 791 794 797 798 800 802 804 808 811 812 815 818 819 819 820 821 821 822 823 824 823 820 819 823 817 823 820 820 817 818 820 820
777 776 775 776 776 777 779 780 781 782 787 790 792 795 797 797 798 802 805 807 811 817 815 815 819 819 819 816 818 818 821 821 821 820 819 816 817 821 819 816 815 818 818
777 776 776 778 777 779 778 781 783 784 789 789 792 795 795 795 797 799 800 807 810 809 813 816 817 819 819 814 813 811 814 818 823 823 820 814 815 817 817 814 814 815 816
779 776 777 779 778 779 780 784 787 787 789 788 789 791 792 792 794 796 800 803 807 808 809 812 812 811 813 812 813 812 810 812 816 822 819 814 814 815 812 812 813 814 814
774 776 780 781 783 784 785 786 788 790 791 790 792 791 792 793 793 795 796 796 799 802 803 806 807 809 813 811 809 812 812 804 811 820 818 814 812 810 809 809 811 812 812
780 779 780 782 784 783 785 787 785 785 786 785 789 788 788 788 789 788 789 792 794 796 801 803 804 806 810 807 808 808 807 806 808 814 815 810 808 806 806 808 810 810 810
786 785 785 785 786 782 781 782 782 784 784 785 785 784 784 785 786 786 788 791 791 795 799 800 802 802 802 804 801 804 806 805 806 811 808 804 803 803 804 806 807 808 808
785 786 787 786 784 783 783 785 784 782 781 781 781 781 783 783 782 784 787 788 790 793 792 796 794 793 797 799 799 802 802 802 804 804 801 800 799 800 802 804 804 805 805
788 788 788 786 785 783 783 784 785 785 781 779 779 781 781 780 780 781 783 785 788 789 787 786 785 788 792 795 796 797 797 797 797 797 796 795 795 797 799 799 799 800 801
785 785 785 784 784 781 779 779 778 777 777 778 779 779 778 777 776 776 778 780 781 779 778 779 782 785 787 789 790 790 791 791 791 791 791 791 793 794 794 794 795 795 797
783 782 782 782 781 780 779 778 776 776 776 775 775 774 773 772 771 772 773 773 773 772 773 775 777 779 780 782 783 784 784 785 785 785 786 787 788 789 789 790 790 790 791
782 781 780 780 779 778 777 777 776 775 774 772 771 769 768 768 767 767 767 767 767 768 769 770 773 774 775 777 778 778 779 779 779 780 781 782 784 784 784 785 786 786 787
782 781 780 779 778 777 775 775 774 773 772 770 768 767 766 765 764 764 764 764 765 765 766 767 768 770 771 772 773 773 774 774 775 776 777 778 778 778 779 780 781 782 783
780 779 779 778 777 776 774 773 772 771 770 769 768 766 765 764 764 763 762 763 763 763 764 765 765 767 767 768 769 769 770 770 771 772 772 773 774 774 775 775 776 777 777
779 778 777 776 775 774 772 772 770 769 769 766 766 764 764 763 763 762 761 761 760 761 762 762 763 763 764 765 765 766 766 767 767 768 768 769 769 770 770 771 772 772 773
777 777 776 775 774 773 772 770 769 767 766 765 764 763 762 761 761 760 759 758 757 758 759 759 760 760 761 761 762 762 763 764 764 765 765 765 765 766 767 767 768 768 769
774 774 773 772 772 771 770 768 767 766 764 763 761 761 760 759 758 757 756 755 754 755 755 756 756 757 757 756 757 758 758 759 760 760 760 760 760 761 762 763 763 764 764